DW2738 Weather Reports


Display with metric or nautical units.
time (UTC)temp
F
wind
direction
speed
MPH
gust
MPH
rain 1hr
in
rain 24hr
in
rain mn
in
humidity
%
barometer
mb
20260510165300 80 138 6.0 6.0 0.00 0.00 0.00 45 1012.3
20260510164758 81 210 4.0 4.0 0.00 0.00 0.00 49 1012.2
20260510164255 79 278 1.0 4.0 0.00 0.00 0.00 48 1012.1
20260510163755 79 188 2.0 4.0 0.00 0.00 0.00 48 1012.2
20260510163251 79 285 4.0 7.0 0.00 0.00 0.00 52 1012.2
20260510162750 79 194 2.0 5.0 0.00 0.00 0.00 52 1012.4
20260510162248 81 270 3.0 4.0 0.00 0.00 0.00 48 1012.5
20260510161743 79 3 3.0 4.0 0.00 0.00 0.00 54 1012.4
20260510161239 79 265 4.0 7.0 0.00 0.00 0.00 53 1012.6
20260510160737 79 265 4.0 7.0 0.00 0.00 0.00 53 1012.6
20260510160233 79 337 2.0 4.0 0.00 0.00 0.00 53 1012.5
20260510155728 78 234 0.0 3.0 0.00 0.00 0.00 55 1012.7
20260510155224 76 198 0.0 3.0 0.00 0.00 0.00 58 1012.5
20260510154721 77 203 1.0 5.0 0.00 0.00 0.00 57 1013.0
20260510154217 76 264 0.0 4.0 0.00 0.00 0.00 57 1012.6
20260510153711 76 90 1.0 3.0 0.00 0.00 0.00 57 1012.5
20260510153208 76 214 4.0 4.0 0.00 0.00 0.00 58 1012.6
20260510152705 76 260 5.0 5.0 0.00 0.00 0.00 58 1012.6
20260510152201 75 328 0.0 3.0 0.00 0.00 0.00 64 1012.7
20260510151658 75 225 2.0 3.0 0.00 0.00 0.00 62 1012.3
20260510151156 73 279 0.0 4.0 0.00 0.00 0.00 62 1012.6
20260510150652 73 327 0.0 5.0 0.00 0.00 0.00 66 1012.4
20260510150147 74 180 1.0 3.0 0.00 0.00 0.00 65 1012.5
20260510145644 73 66 0.0 4.0 0.00 0.00 0.00 65 1012.8
20260510145140 74 262 3.0 4.0 0.00 0.00 0.00 67 1012.9
20260510144636 73 233 2.0 2.0 0.00 0.00 0.00 67 1013.0
20260510144133 71 220 3.0 4.0 0.00 0.00 0.00 69 1012.9
20260510143628 71 241 3.0 4.0 0.00 0.00 0.00 68 1013.1
20260510143125 70 270 0.0 2.0 0.00 0.00 0.00 71 1013.0
20260510142621 69 218 2.0 5.0 0.00 0.00 0.00 72 1012.8
20260510142118 69 238 5.0 5.0 0.00 0.00 0.00 71 1012.9
20260510141615 69 270 2.0 4.0 0.00 0.00 0.00 72 1012.8
20260510141113 68 105 0.0 0.0 0.00 0.00 0.00 75 1013.0
20260510140609 67 110 2.0 3.0 0.00 0.00 0.00 76 1012.8
20260510140108 67 237 2.0 2.0 0.00 0.00 0.00 77 1013.1
20260510135604 65 209 0.0 1.0 0.00 0.00 0.00 82 1012.9
20260510135101 63 120 0.0 2.0 0.00 0.00 0.00 83 1013.1
20260510134558 64 33 0.0 2.0 0.00 0.00 0.00 83 1013.2
20260510134054 63 270 0.0 3.0 0.00 0.00 0.00 85 1013.3
20260510133551 62 249 3.0 3.0 0.00 0.00 0.00 88 1013.2
20260510133046 60 66 0.0 3.0 0.00 0.00 0.00 90 1013.0
20260510132543 58 59 2.0 2.0 0.00 0.00 0.00 94 1013.1
20260510132040 57 114 0.0 2.0 0.00 0.00 0.00 96 1013.2
20260510131538 57 188 0.0 1.0 0.00 0.00 0.00 98 1013.1
20260510131035 56 74 0.0 2.0 0.00 0.00 0.00 99 1013.1
20260510130531 55 165 0.0 2.0 0.00 0.00 0.00 99 1013.0
20260510130029 55 264 0.0 2.0 0.00 0.00 0.00 99 1013.3
20260510125525 55 111 1.0 2.0 0.00 0.00 0.00 99 1013.1
20260510125021 54 257 1.0 2.0 0.00 0.00 0.00 99 1013.0
20260510124518 54 82 0.0 2.0 0.00 0.00 0.00 99 1013.0
20260510124015 54 180 0.0 2.0 0.00 0.00 0.00 99 1012.9
20260510123510 54 261 0.0 2.0 0.00 0.00 0.00 99 1012.6
20260510123006 54 188 0.0 0.0 0.00 0.00 0.00 99 1012.9
20260510122502 53 210 2.0 2.0 0.00 0.00 0.00 99 1012.6
20260510121959 53 90 0.0 3.0 0.00 0.00 0.00 99 1012.5
20260510121456 53 255 1.0 2.0 0.00 0.00 0.00 99 1012.2
20260510120953 53 340 1.0 2.0 0.00 0.00 0.00 99 1012.1
20260510120450 53 349 0.0 3.0 0.00 0.00 0.00 99 1012.2
20260510115946 52 341 0.0 2.0 0.00 0.00 0.00 99 1012.1
20260510115444 52 257 1.0 2.0 0.00 0.00 0.00 99 1012.0
20260510114939 52 0 0.0 1.0 0.00 0.00 0.00 99 1012.1
20260510114436 52 270 0.0 2.0 0.00 0.00 0.00 99 1012.0
20260510113932 52 262 0.0 1.0 0.00 0.00 0.00 99 1012.0
20260510113427 52 198 0.0 0.0 0.00 0.00 0.00 99 1012.1
20260510112925 51 257 0.0 2.0 0.00 0.00 0.00 99 1011.8
20260510112422 51 330 0.0 0.0 0.00 0.00 0.00 99 1011.9
20260510111918 51 276 0.0 2.0 0.00 0.00 0.00 99 1011.6
20260510111414 51 264 2.0 2.0 0.00 0.00 0.00 99 1011.4
20260510110910 50 278 0.0 1.0 0.00 0.00 0.00 99 1011.4
20260510110407 50 306 0.0 2.0 0.00 0.00 0.00 99 1011.4
20260510105903 50 117 3.0 3.0 0.00 0.00 0.00 99 1011.5
20260510105403 50 191 0.0 2.0 0.00 0.00 0.00 99 1011.3
20260510104859 49 72 0.0 3.0 0.00 0.00 0.00 99 1011.2
20260510104356 48 258 1.0 4.0 0.00 0.00 0.00 99 1011.0
20260510103852 47 291 0.0 0.0 0.00 0.00 0.00 99 1011.1
20260510103349 46 264 2.0 2.0 0.00 0.00 0.00 99 1011.1
20260510102845 46 180 0.0 0.0 0.00 0.00 0.00 99 1010.9
20260510102341 46 270 0.0 2.0 0.00 0.00 0.00 99 1011.2
20260510101838 45 278 0.0 1.0 0.00 0.00 0.00 99 1011.2
20260510101337 45 262 0.0 0.0 0.00 0.00 0.00 99 1011.0
20260510100832 45 262 0.0 0.0 0.00 0.00 0.00 99 1011.3
20260510100330 45 262 0.0 0.0 0.00 0.00 0.00 99 1010.8
20260510095826 45 262 0.0 0.0 0.00 0.00 0.00 99 1011.0
20260510095321 45 262 0.0 0.0 0.00 0.00 0.00 99 1010.8
20260510094821 45 262 0.0 1.0 0.00 0.00 0.00 99 1010.8
20260510094316 45 255 0.0 1.0 0.00 0.00 0.00 99 1010.6
20260510093813 45 270 0.0 1.0 0.00 0.00 0.00 99 1010.6
20260510093309 45 262 0.0 1.0 0.00 0.00 0.00 99 1010.5
20260510092805 45 294 0.0 0.0 0.00 0.00 0.00 99 1010.2
20260510092301 45 255 0.0 1.0 0.00 0.00 0.00 99 1010.4
20260510091757 45 246 0.0 1.0 0.00 0.00 0.00 99 1010.4
20260510091255 45 340 0.0 0.0 0.00 0.00 0.00 99 1010.1
20260510090751 45 0 0.0 0.0 0.00 0.00 0.00 99 1010.0
20260510090248 45 354 0.0 0.0 0.00 0.00 0.00 99 1010.2
20260510085743 46 331 0.0 1.0 0.00 0.00 0.00 99 1010.0
20260510085237 46 331 0.0 1.0 0.00 0.00 0.00 99 1009.9
20260510084734 46 20 0.0 0.0 0.00 0.00 0.00 99 1009.9
20260510084231 46 240 0.0 0.0 0.00 0.00 0.00 99 1009.7
20260510083727 46 240 0.0 0.0 0.00 0.00 0.00 99 1009.9
20260510083225 46 195 0.0 0.0 0.00 0.00 0.00 99 1010.1
20260510082720 46 353 0.0 1.0 0.00 0.00 0.00 99 1009.9
20260510082217 46 180 0.0 1.0 0.00 0.00 0.00 99 1010.1
20260510081716 46 12 0.0 2.0 0.00 0.00 0.00 99 1009.9
20260510081213 46 346 0.0 1.0 0.00 0.00 0.00 99 1009.9
20260510080707 46 352 0.0 0.0 0.00 0.00 0.00 99 1010.0
20260510080203 47 352 0.0 0.0 0.00 0.00 0.00 99 1009.9
20260510075700 47 352 0.0 0.0 0.00 0.00 0.00 99 1009.9
20260510075158 46 345 0.0 0.0 0.00 0.00 0.00 99 1009.7
20260510074655 47 345 0.0 0.0 0.00 0.00 0.00 99 1009.8
20260510074150 47 345 0.0 0.0 0.00 0.00 0.00 99 1009.9
20260510073648 47 345 0.0 0.0 0.00 0.00 0.00 99 1009.8
20260510073143 47 337 0.0 0.0 0.00 0.00 0.00 99 1009.7
20260510072640 47 337 0.0 1.0 0.00 0.00 0.00 99 1009.8
20260510072136 47 353 0.0 1.0 0.00 0.00 0.00 99 1009.8
20260510071632 48 74 0.0 0.0 0.00 0.00 0.00 99 1010.0
20260510071130 48 74 0.0 0.0 0.00 0.00 0.00 99 1009.7
20260510070627 48 340 0.0 0.0 0.00 0.00 0.00 99 1009.7
20260510070125 48 340 0.0 0.0 0.00 0.00 0.00 99 1009.9
20260510065620 48 340 0.0 0.0 0.00 0.00 0.00 99 1009.9
20260510065116 48 340 0.0 0.0 0.00 0.00 0.00 99 1010.0
20260510064613 48 340 0.0 0.0 0.00 0.00 0.00 99 1009.8
20260510064110 48 340 0.0 0.0 0.00 0.00 0.00 99 1010.0
20260510063606 48 340 0.0 1.0 0.00 0.00 0.00 99 1010.1
20260510063104 48 23 0.0 0.0 0.00 0.00 0.00 99 1010.1
20260510062559 48 23 0.0 0.0 0.00 0.00 0.00 99 1010.0
20260510062055 48 23 0.0 0.0 0.00 0.00 0.00 99 1010.0
20260510061551 48 23 0.0 0.0 0.00 0.00 0.00 99 1010.0
20260510061048 48 23 0.0 0.0 0.00 0.00 0.00 99 1010.0
20260510060544 48 23 0.0 0.0 0.00 0.00 0.00 99 1010.3
20260510060041 49 23 0.0 0.0 0.00 0.00 0.00 99 1010.1
20260510055537 49 23 0.0 0.0 0.00 0.00 0.00 99 1010.2
20260510055036 49 279 0.0 0.0 0.00 0.00 0.00 99 1010.2
20260510054531 49 279 0.0 0.0 0.00 0.00 0.00 99 1010.0
20260510054026 49 279 0.0 0.0 0.00 0.00 0.00 99 1010.2
20260510053521 49 279 0.0 0.0 0.00 0.00 0.00 99 1010.4
20260510053018 49 276 0.0 0.0 0.00 0.00 0.00 99 1010.2
20260510052514 49 276 0.0 1.0 0.00 0.00 0.00 99 1010.2
20260510052010 49 90 0.0 0.0 0.00 0.00 0.00 99 1010.4
20260510051506 49 331 0.0 0.0 0.00 0.00 0.00 99 1010.4
20260510051003 49 331 0.0 0.0 0.00 0.00 0.00 99 1010.5
20260510050500 49 345 0.0 0.0 0.00 0.00 0.00 99 1010.4
20260510045957 49 345 0.0 0.0 0.00 0.00 0.00 99 1010.6
20260510045454 49 345 0.0 0.0 0.00 0.00 0.00 99 1010.3
20260510044950 49 345 0.0 0.0 0.00 0.00 0.00 99 1010.3
20260510044447 49 345 0.0 0.0 0.00 0.00 0.00 99 1010.8
20260510043944 49 345 0.0 0.0 0.00 0.00 0.00 99 1010.5
20260510043440 49 345 0.0 0.0 0.00 0.00 0.00 99 1010.5
20260510042938 49 345 0.0 0.0 0.00 0.00 0.00 99 1010.5
20260510042434 49 345 0.0 0.0 0.00 0.00 0.00 99 1010.5
20260510041930 50 345 0.0 0.0 0.00 0.00 0.00 99 1010.3
20260510041427 50 345 0.0 0.0 0.00 0.00 0.00 99 1010.3
20260510040925 50 345 0.0 0.0 0.00 0.00 0.00 99 1010.3
20260510040421 50 345 0.0 0.0 0.00 0.00 0.00 99 1010.4
20260510035917 50 345 0.0 0.0 0.00 0.00 0.00 99 1010.2
20260510035414 50 345 0.0 0.0 0.00 0.00 0.00 99 1010.3
20260510034913 50 345 0.0 0.0 0.00 0.00 0.00 99 1010.2
20260510034413 51 345 0.0 0.0 0.00 0.00 0.00 99 1010.1
20260510033908 51 345 0.0 0.0 0.00 0.00 0.00 99 1010.1
20260510033405 51 345 0.0 0.0 0.00 0.00 0.00 99 1010.3
20260510032901 51 345 0.0 0.0 0.00 0.00 0.00 99 1010.3
20260510032358 51 345 0.0 0.0 0.00 0.00 0.00 99 1010.3
20260510031854 51 345 0.0 0.0 0.00 0.00 0.00 99 1010.2
20260510031349 51 345 0.0 0.0 0.00 0.00 0.00 99 1010.2
20260510030849 51 345 0.0 0.0 0.00 0.00 0.00 99 1010.4
20260510030346 52 126 0.0 0.0 0.00 0.00 0.00 99 1010.1
20260510025843 52 126 0.0 0.0 0.00 0.00 0.00 99 1010.2
20260510025341 52 126 0.0 0.0 0.00 0.00 0.00 99 1010.2
20260510024837 52 126 0.0 0.0 0.00 0.00 0.00 99 1010.1
20260510024334 52 126 0.0 0.0 0.00 0.00 0.00 99 1010.0
20260510023830 53 126 0.0 0.0 0.00 0.00 0.00 99 1010.1
20260510023327 53 126 0.0 0.0 0.00 0.00 0.00 99 1010.0
20260510022824 53 194 0.0 0.0 0.00 0.00 0.00 99 1009.9
20260510022323 53 194 0.0 0.0 0.00 0.00 0.00 99 1010.1
20260510021822 53 194 0.0 0.0 0.00 0.00 0.00 99 1010.1
20260510021321 53 194 0.0 0.0 0.00 0.00 0.00 99 1010.1
20260510020817 53 194 0.0 0.0 0.00 0.00 0.00 98 1010.2
20260510020312 53 194 0.0 0.0 0.00 0.00 0.00 98 1010.1
20260510015808 53 194 0.0 0.0 0.00 0.00 0.00 98 1010.3
20260510015306 54 194 0.0 0.0 0.00 0.00 0.00 98 1010.1
20260510014759 54 194 0.0 1.0 0.00 0.00 0.00 98 1010.2
20260510014256 54 195 0.0 0.0 0.00 0.00 0.00 98 1010.0
20260510013752 54 195 0.0 0.0 0.00 0.00 0.00 97 1010.2
20260510013248 54 195 0.0 0.0 0.00 0.00 0.00 97 1010.3
20260510012743 55 195 0.0 0.0 0.00 0.00 0.00 97 1010.1
20260510012238 54 195 0.0 0.0 0.00 0.00 0.00 97 1010.0
20260510011737 54 195 0.0 0.0 0.00 0.00 0.00 97 1010.2
20260510011234 55 195 0.0 0.0 0.00 0.00 0.00 97 1010.0
20260510010731 55 195 0.0 0.0 0.00 0.00 0.00 97 1009.9
20260510010227 55 195 0.0 0.0 0.00 0.00 0.00 96 1009.9
20260510005724 55 195 0.0 0.0 0.00 0.00 0.00 96 1010.0
20260510005221 55 195 0.0 0.0 0.00 0.00 0.00 96 1009.8
20260510004718 56 195 0.0 0.0 0.00 0.00 0.00 96 1009.8
20260510004216 56 195 0.0 0.0 0.00 0.00 0.00 95 1010.0
20260510003713 56 195 0.0 0.0 0.00 0.00 0.00 95 1009.8
20260510003209 57 195 0.0 0.0 0.00 0.00 0.00 94 1009.7
20260510002708 57 195 0.0 0.0 0.00 0.00 0.00 94 1009.7
20260510002206 57 195 0.0 0.0 0.00 0.00 0.00 93 1009.7
20260510001702 58 195 0.0 0.0 0.00 0.00 0.00 93 1009.8
20260510001201 58 195 0.0 0.0 0.00 0.00 0.00 92 1009.6
20260510000656 58 195 0.0 0.0 0.00 0.00 0.00 92 1009.6
20260510000154 59 195 0.0 0.0 0.00 0.00 0.00 91 1009.6
20260509235650 59 195 0.0 1.0 0.00 0.00 0.00 91 1009.7
20260509235147 60 234 0.0 0.0 0.00 0.00 0.00 90 1009.6
20260509234643 60 234 0.0 0.0 0.00 0.00 0.00 89 1009.6
20260509234141 60 234 0.0 0.0 0.00 0.00 0.00 89 1009.5
20260509233638 60 234 0.0 0.0 0.00 0.00 0.00 88 1009.5
20260509233136 60 234 0.0 0.0 0.00 0.00 0.00 88 1009.5
20260509232631 61 234 0.0 0.0 0.00 0.00 0.00 87 1009.3
20260509232128 61 234 0.0 0.0 0.00 0.00 0.00 86 1009.5
20260509231625 62 140 0.0 0.0 0.00 0.00 0.00 86 1009.5
20260509231123 62 140 0.0 2.0 0.00 0.00 0.00 86 1009.3
20260509230619 62 249 0.0 2.0 0.00 0.00 0.00 85 1009.5
20260509230117 62 254 1.0 2.0 0.00 0.00 0.00 85 1009.3
20260509225612 62 270 0.0 0.0 0.00 0.00 0.00 85 1009.2
20260509225108 62 261 0.0 2.0 0.00 0.00 0.00 83 1009.3
20260509224603 62 240 0.0 1.0 0.00 0.00 0.00 84 1009.4
20260509224101 62 209 0.0 2.0 0.00 0.00 0.00 84 1009.5
20260509223557 62 225 2.0 2.0 0.00 0.00 0.00 83 1009.3
20260509223055 62 229 2.0 3.0 0.00 0.00 0.00 84 1009.3
20260509222551 62 188 0.0 2.0 0.00 0.00 0.00 84 1009.5
20260509222047 61 261 0.0 2.0 0.02 0.00 0.00 83 1009.4
20260509221543 62 262 1.0 3.0 0.02 0.00 0.00 81 1009.4
20260509221039 64 334 2.0 3.0 0.00 0.00 0.00 76 1009.5
20260509220535 64 294 0.0 2.0 0.00 0.00 0.00 74 1009.2
20260509220032 64 254 2.0 2.0 0.00 0.00 0.00 74 1009.2
20260509215527 64 252 2.0 4.0 0.00 0.00 0.00 73 1009.1
20260509215024 64 139 0.0 3.0 0.00 0.00 0.00 72 1009.3
20260509214521 65 342 0.0 3.0 0.00 0.00 0.00 72 1009.2
20260509214018 65 131 2.0 3.0 0.00 0.00 0.00 73 1009.3
20260509213514 65 251 0.0 2.0 0.00 0.00 0.00 74 1009.2
20260509213011 65 263 0.0 2.0 0.00 0.00 0.00 74 1009.2
20260509212509 64 259 2.0 3.0 0.00 0.00 0.00 74 1009.0
20260509212005 65 259 0.0 5.0 0.00 0.00 0.00 74 1008.8
20260509211500 65 349 0.0 2.0 0.00 0.00 0.00 74 1008.9
20260509210957 65 345 2.0 3.0 0.00 0.00 0.00 73 1008.7
20260509210454 65 353 2.0 3.0 0.00 0.00 0.00 73 1008.9
20260509205950 66 352 0.0 3.0 0.00 0.00 0.00 71 1009.0
20260509205445 70 152 3.0 4.0 0.00 0.00 0.00 64 1008.9
20260509204941 70 264 1.0 4.0 0.00 0.00 0.00 65 1009.1
20260509204437 71 302 0.0 4.0 0.00 0.00 0.00 63 1008.9
20260509203934 71 188 3.0 5.0 0.00 0.00 0.00 64 1008.7
20260509203430 70 259 3.0 5.0 0.00 0.00 0.00 65 1008.7
20260509202927 70 177 2.0 3.0 0.00 0.00 0.00 65 1008.7
20260509202423 70 281 2.0 3.0 0.00 0.00 0.00 66 1008.5
20260509201919 71 255 3.0 4.0 0.00 0.00 0.00 65 1008.7
20260509201414 71 175 3.0 8.0 0.00 0.00 0.00 65 1008.7
20260509200911 71 204 2.0 5.0 0.00 0.00 0.00 66 1008.8
20260509200411 69 257 2.0 8.0 0.00 0.00 0.00 69 1009.0
20260509195908 69 93 3.0 6.0 0.00 0.00 0.00 69 1009.0
20260509195403 69 132 2.0 6.0 0.00 0.00 0.00 70 1008.9
20260509194903 70 230 4.0 7.0 0.00 0.00 0.00 70 1008.9
20260509194359 70 126 3.0 5.0 0.00 0.00 0.00 71 1008.9
20260509193856 69 157 3.0 6.0 0.00 0.00 0.00 74 1008.8
20260509193356 69 183 2.0 7.0 0.00 0.00 0.00 74 1009.0
20260509192852 68 131 0.0 5.0 0.00 0.00 0.00 75 1008.9
20260509192348 67 117 0.0 9.0 0.00 0.00 0.00 76 1009.2
20260509191844 67 163 2.0 6.0 0.00 0.00 0.00 76 1009.2
20260509191339 67 210 4.0 6.0 0.00 0.00 0.00 76 1009.2
20260509190836 67 167 3.0 7.0 0.00 0.00 0.00 76 1009.6
20260509190333 67 130 5.0 10.0 0.00 0.00 0.00 76 1009.7
20260509185830 67 230 4.0 7.0 0.00 0.00 0.00 77 1009.4
20260509185327 67 158 0.0 9.0 0.00 0.00 0.00 77 1009.8
20260509184824 67 145 0.0 7.0 0.00 0.00 0.00 77 1009.8
20260509184321 67 180 4.0 6.0 0.00 0.00 0.00 75 1009.8
20260509183818 67 234 1.0 9.0 0.00 0.00 0.00 75 1009.9
20260509183313 68 184 2.0 5.0 0.00 0.00 0.00 73 1009.9
20260509182809 68 180 2.0 11.0 0.00 0.00 0.00 72 1010.2
20260509182307 68 236 3.0 8.0 0.00 0.00 0.00 71 1010.0
20260509181803 69 68 2.0 11.0 0.00 0.00 0.00 71 1010.0
20260509181301 70 162 3.0 10.0 0.00 0.00 0.00 68 1010.0
20260509180758 71 231 2.0 6.0 0.00 0.00 0.00 68 1009.6
20260509180254 70 186 0.0 7.0 0.00 0.00 0.00 69 1009.9
20260509175750 71 209 3.0 10.0 0.00 0.00 0.00 66 1010.1
20260509175247 71 26 3.0 7.0 0.00 0.00 0.00 64 1009.7
20260509174743 71 223 5.0 9.0 0.00 0.00 0.00 63 1010.0
20260509174238 71 280 3.0 10.0 0.00 0.00 0.00 63 1009.9
20260509173735 71 280 3.0 10.0 0.00 0.00 0.00 63 1009.9
20260509173230 72 141 3.0 11.0 0.00 0.00 0.00 62 1010.2
20260509172727 72 140 5.0 8.0 0.00 0.00 0.00 59 1010.2
20260509172223 70 150 4.0 7.0 0.00 0.00 0.00 60 1010.3
20260509171718 71 159 4.0 7.0 0.00 0.00 0.00 59 1010.3
20260509171215 71 115 6.0 12.0 0.00 0.00 0.00 61 1010.3
20260509170712 71 137 6.0 11.0 0.00 0.00 0.00 61 1010.5
20260509170208 70 236 2.0 9.0 0.00 0.00 0.00 63 1010.5
20260509165707 70 126 1.0 13.0 0.00 0.00 0.00 63 1010.6